Regional Weather Roundup
Issued by NWS Albany, NY

Home | Current Version | Previous Version | Graphics & Text | Print | Product List | Glossary Off
Versions: 1 2 3 4 5 6 7 8 9 10 11 12 13 14 15 16 17 18 19 20 21 22 23 24 25 26 27 28

000
ASUS41 KALY 280910
RWRALY

NEW YORK STATE HOURLY WEATHER ROUNDUP
NATIONAL WEATHER SERVICE ALBANY NY
500 AM EDT WED JUN 28 2017

NOTE: "FAIR" INDICATES FEW OR NO CLOUDS BELOW 12,000 FEET WITH NO
SIGNIFICANT WEATHER AND/OR NO OBSTRUCTIONS TO VISIBILITY.

NYZ032-033-038>043-046>054-057>066-NYZ062>081-082-084-281000-
EAST


CITY           SKY/WX    TMP DP  RH WIND       PRES   REMARKS
ALBANY         PTCLDY    52  49  89 SW6       30.03S
GLENS FALLS    CLEAR     47  45  93 CALM      30.01R
POUGHKEEPSIE   CLEAR     52  49  89 CALM      30.05R
NEWBURGH       CLEAR     54  52  94 W9        30.08R
MONTGOMERY     CLEAR     52  49  89 CALM      30.07R
WHITE PLAINS   CLEAR     60  51  72 W9        30.06R
ISLIP          CLEAR     59  54  83 NW3       30.05R
NEW YORK CITY  CLEAR     64  53  67 NW12      30.07R
CENTRAL PARK   CLEAR     62  50  64 VRB3      30.10R
$$

NYZ005>009-017-018-044>046-055-056-281000-
CENTRAL


CITY           SKY/WX    TMP DP  RH WIND       PRES   REMARKS
FULTON         PTCLDY    53  50  89 SW3       30.04R
SYRACUSE       PTCLDY    53  50  89 CALM      30.03S
ROME           CLOUDY    55  54  96 CALM      30.06R
ELMIRA         MOCLDY    50  48  93 SW5       30.09R
BINGHAMTON     CLEAR     48  46  93 W6        30.09R
MONTICELLO     CLEAR     48  48 100 MISG      30.10R
$$

NYZ026>034-041>043-087-281000-
NORTH


CITY           SKY/WX    TMP DP  RH WIND       PRES   REMARKS
WATERTOWN      CLEAR     53  51  93 S3        30.01R
FORT DRUM      NOT AVBL
OGDENSBURG     FAIR      53  52  94 CALM      29.99R
MASSENA        CLEAR     52  52 100 SW6       29.98R
SARANAC LAKE   CLOUDY    52  52 100 W5        29.98R
PLATTSBURGH    CLOUDY    54  52  93 CALM      29.96R
$$

NYZ001>004-010>016-019>021-085-281000-
WEST


CITY           SKY/WX    TMP DP  RH WIND       PRES   REMARKS
NIAGARA FALLS  MOCLDY    59  50  72 SW8       30.05R
BUFFALO        CLOUDY    56  49  77 S7        30.06R
DUNKIRK        CLEAR     56  46  69 S9        30.07R
JAMESTOWN      MOCLDY    52  43  71 SW6       30.10R
WELLSVILLE     CLEAR     52  43  71 W8        30.11S
ROCHESTER      PTCLDY    52  50  93 SW7       30.05R
PENN YAN       MOCLDY    55  49  80 S8        30.07R
$$

             KEY
       WCI = WIND CHILL INDEX
       VSB = VISIBILITY
       HX  = HEAT INDEX
$$




USA.gov is the U.S. government's official web portal to all federal, state and local government web resources and services.